Regional Weather Roundup
Issued by NWS Little Rock, AR

Home | Current Version | Previous Version | Graphics & Text | Print | Product List | Glossary On
Versions: 1 2 3 4 5 6 7 8 9 10 11 12 13 14 15 16 17 18 19 20 21 22 23 24 25 26 27 28 29 30 31 32 33 34 35 36 37 38 39 40 41 42 43 44 45 46 47 48 49 50
000
ASUS44 KLZK 280505
RWRLZK

WEATHER ROUNDUP FOR ARKANSAS
NATIONAL WEATHER SERVICE LITTLE ROCK AR
1200 AM CDT SAT MAR 28 2015

NOTE: "FAIR" INDICATES FEW OR NO CLOUDS BELOW 12,000 FEET WITH NO
SIGNIFICANT WEATHER AND/OR OBSTRUCTIONS TO VISIBILITY.

ARZ001-003-010-029-280600-
NORTHWEST ARKANSAS

CITY           SKY/WX    TMP DP  RH WIND       PRES   REMARKS
FAYETTEVILLE   CLOUDY    41  33  73 CALM      30.15F
FORT SMITH     CLOUDY    49  26  41 CALM      30.17F
HARRISON       CLOUDY    41  27  57 CALM      30.16F
BENTONVILLE    MOCLDY    43  23  45 SE6       30.14F
ROGERS         CLOUDY    43  25  49 E6        30.15F
SILOAM SPGS    CLOUDY    43  27  52 SE5       30.15F
HIGHFILL       MOCLDY    44  28  53 SE5       30.14F
$$

ARZ004-005-016-280600-
NORTH CENTRAL ARKANSAS

CITY           SKY/WX    TMP DP  RH WIND       PRES   REMARKS
BATESVILLE     CLOUDY    39  28  65 NW3       30.18F
FLIPPIN        CLOUDY    43  28  56 CALM      30.17S
MTN HOME       CLOUDY    41  24  51 CALM      30.16F
$$

ARZ040-041-280600-
WEST CENTRAL ARKANSAS

CITY           SKY/WX    TMP DP  RH WIND       PRES   REMARKS
MENA           PTCLDY    41  32  70 CALM      30.18S
MOUNT IDA      CLOUDY    44  34  67 CALM      30.15S
$$

ARZ009-017-025-026-028-280600-
NORTHEAST ARKANSAS

CITY           SKY/WX    TMP DP  RH WIND       PRES   REMARKS
CORNING          N/A     37  30  75 E6        30.22S
JONESBORO      MOCLDY    36  30  79 E6        30.21R
NEWPORT        CLOUDY    41  33  73 E10       30.21S
BLYTHEVILLE    MOCLDY    36  28  73 NE7       30.21R
$$

ARZ022-023-033-042-044-280600-
CENTRAL ARKANSAS

CITY           SKY/WX    TMP DP  RH WIND       PRES   REMARKS
LITTLE ROCK    CLOUDY    47  28  47 NE8       30.19F
N LITTLE ROCK  CLOUDY    45  32  60 NE6       30.19F
JACKSONVILLE   CLOUDY    45  33  61 NE3       30.18F
SEARCY         CLOUDY    42  36  79 CALM      30.20F
HOT SPRINGS    MOCLDY    44  36  73 CALM      30.19R
RUSSELLVILLE   CLOUDY    46  33  60 CALM      30.18S
CLINTON        CLOUDY    43  36  75 CALM      30.19F
$$

ARZ036-280600-
EAST ARKANSAS

CITY           SKY/WX    TMP DP  RH WIND       PRES   REMARKS
WEST MEMPHIS   MOCLDY    38  29  70 E7        30.20R
$$

ARZ050-053-066-070-073-280600-
SOUTHWEST ARKANSAS

CITY           SKY/WX    TMP DP  RH WIND       PRES   REMARKS
ARKADELPHIA    FAIR      46  45  97 CALM      30.19R
CAMDEN         PTCLDY    41  37  87 CALM      30.19R
TEXARKANA      PTCLDY    44  36  73 CALM      30.19R
EL DORADO      PTCLDY    43  39  86 CALM      30.18R
DE QUEEN       CLEAR     41  38  89 CALM      30.18R
$$

ARZ056-057-069-280600-
SOUTHEAST ARKANSAS

CITY           SKY/WX    TMP DP  RH WIND       PRES   REMARKS
PINE BLUFF     MOCLDY    45  37  73 NE6       30.19R
STUTTGART      CLOUDY    45  30  57 NE7       30.19F
MONTICELLO     MOCLDY    43  38  82 CALM      30.17S

$$




USA.gov is the U.S. government's official web portal to all federal, state and local government web resources and services.